SCP
0 0 0 0 0 0 0 0 0 0 0 0 0 0 0 0 0 0 0 0 0 0 0 0 0 0 0 0 0 0 0 0 0 0 0 0 0 0
0 0 0 0 0 0 0 0 0 0 0 0 0 0 0 0 0 0 0 0 0 0 0 0 0 0 0 0 0 0 0 0 0 0 0 0 0 0
0 0 0 0 0 0 0 0 0 0 0 0 0 0 0 0 0 0 0 0 0 0 0 0 0 0 0 0 0 0 0 0 0 0 0 0 0 0
0 0 0 0 0 0 0 0 0 0 0 0 0 0 0 0 0 0 0 0 0 0 0 0 0 0 0 0 0 0 0 0 0 0 0 0 0 0
0 0 0 0 0 0 0 0 0 0 0 0 0 0 0 0 0 0 0 0 0 0 0 0 0 0 0 0 0 0 0 0 0 0 0 0 0 0
0 0 0 0 0 0 0 0 0 0 0 0 0 0 0 0 0 0 0 0 0 0 0 0 0 0 0 0 0 0 0 0 0 0 0 0 0 0
0 0 0 0 0 0 0 0 0 0 0 0 0 0 0 0 0 0 0 0 0 0 0 0 0 0 0 0 0 0 0 0 0 0 0 0 0 0
0 0 0 0 0 0 0 0 0 0 0 0 0 0 0 0 0 0 0 0 0 0 0 0 0 0 0 0 0 0 0 0 0 0 0 0 0 0
0 0 0 0 0 0 0 0 0 0 0 0 0 0 0 0 0 0 0 0 0 0 0 0 0 0 0 0 0 0 0 0 0 0 0 0 0 0
0 0 0 0 0 0 0 0 0 0 0 0 0 0 0 0 0 0 0 0 0 0 0 0 0 0 0 0 0 0 0 0 0 0 0 0 0 0
0 0 0 0 0 0 0 0 0 0 0 0 0 0 0 0 0 0 0 0 0 0 0 0 0 0 0 0 0 0 0 0 0 0 0 0 0 0
0 0 0 0 0 0 0 0 0 0 0 0 0 0 0 0 0 0 0 0 0 0 0 0 0 0 0 0 0 0 0 0 0 0 0 0 0 0
0 0 0 0 0 0 0 0 0 0 0 0 0 0 0 0 0 0 0 0 0 0 0 0 0 0 0 0 0 0 0 0 0 0 0 0 0 0
0 0 0 0 0 0 0 0 0 0 0 0 0 0 0 0 0 0 0 0 0 0 0 0 0 0 0 0 0 0 0 0 0 0 0 0 0 0
0 0 0 0 0 0 0 0 0 0 0 0 0 0 0 0 0 0 0 0 0 0 0 0 0 0 0 0 0 0 0 0 0 0 0 0 0 0
0 0 0 0 0 0 0 0 0 0 0 0 0 0 0 0 0 0 0 0 0 0 0 0 0 0 0 0 0 0 0 0 0 0 0 0 0 0
0 0 0 0 0 0 0 0 0 0 0 0 0 0 0 0 0 0 0 0 0 0 0 0 0 0 0 0 0 0 0 0 0 0 0 0 0 0
0 0 0 0 0 0 0 0 0 0 0 0 0 0 0 0 0 0 0 0 0 0 0 0 0 0 0 0 0 0 0 0 0 0 0 0 0 0
0 0 0 0 0 0 0 0 0 0 0 0 0 0 0 0 0 0 0 0 0 0 0 0 0 0 0 0 0 0 0 0 0 0 0 0 0 0
0 0 0 0 0 0 0 0 0 0 0 0 0 0 0 0 0 0 0 0 0 0 0 0 0 0 0 0 0 0 0 0 0 0 0 0 0 0
0 0 0 0 0 0 0 0 0 0 0 0 0 0 0 0 0 0 0 0 0 0 0 0 0 0 0 0 0 0 0 0 0 0 0 0 0 0
0 0 0 0 0 0 0 0 0 0 0 0 0 0 0 0 0 0 0 0 0 0 0 0 0 0 0 0 0 0 0 0 0 0 0 0 0 0
0 0 0 0 0 0 0 0 0 0 0 0 0 0 0 0 0 0 0 0 0 0 0 0 0 0 0 0 0 0 0 0 0 0 0 0 0 0
Wind_Speed
2 2 2 1 1 1 2 3 4 2 1 2 2 2 0 1 1 2 2 3 5 5 5 4 4 4 3 2 1 1 0 1 2 2 3 3 4 5
2 2 1 1 1 1 1 1 2 4 2 1 1 2 2 2 3 2 2 3 2 2 3 3 3 2 1 1 1 1 1 1 2 2 3 3 4 5
2 2 2 2 1 1 1 2 1 3 2 0 1 2 3 3 3 3 3 3 2 3 3 2 2 2 2 2 2 2 2 2 2 3 3 4 4 5
3 3 2 2 2 1 2 2 1 2 3 2 1 2 3 2 3 3 3 3 2 5 4 4 3 4 4 4 4 4 4 3 3 4 4 5 5 6
2 3 2 3 2 2 2 2 1 2 3 3 2 2 2 2 3 3 4 3 3 4 5 5 4 5 5 5 5 5 4 4 4 4 4 4 5 6
4 3 2 3 3 2 2 2 3 4 4 4 3 2 2 2 3 3 3 3 3 4 5 5 5 5 5 5 4 4 4 3 3 3 3 3 4 5
5 4 5 7 7 5 4 3 4 4 4 4 3 3 3 3 2 2 2 2 3 3 3 3 3 3 3 3 3 2 2 2 2 2 3 4 4 5
6 5 6 7 10 12 12 10 7 5 4 4 3 3 2 2 2 3 2 2 2 3 3 3 3 3 2 1 2 2 1 2 2 3 4 4 5 6
5 5 5 6 8 8 11 13 12 12 8 5 5 3 2 1 2 3 3 3 1 3 2 2 3 3 2 4 5 4 4 4 4 4 5 5 6 7
5 5 6 5 6 7 8 8 7 7 6 5 5 4 3 2 2 2 2 2 2 3 3 2 3 2 3 3 5 7 6 6 5 5 5 5 5 6
6 6 6 6 8 9 8 7 7 6 8 10 9 8 7 7 4 4 3 3 2 3 3 2 2 2 2 3 4 7 7 7 7 6 6 6 6 6
5 6 8 8 9 9 7 7 7 4 4 6 6 7 6 6 7 4 2 2 2 1 2 1 2 2 3 3 3 3 4 6 7 6 6 6 6 3
5 4 5 10 10 10 8 5 5 4 4 5 4 4 4 4 4 3 2 2 2 0 1 1 1 1 1 3 4 3 3 3 3 3 5 7 7 4
5 4 5 9 10 9 7 8 9 7 4 4 4 3 3 3 3 3 3 2 1 1 1 1 1 0 0 2 4 4 4 3 2 2 3 6 6 7
5 8 8 9 8 7 9 9 7 5 4 4 3 2 1 1 2 3 4 4 4 3 3 1 1 0 1 1 2 3 3 4 3 3 3 3 3 3
6 7 9 9 7 7 6 6 4 4 4 3 2 2 2 3 3 2 3 3 3 4 5 4 2 1 0 1 2 2 2 3 4 4 3 4 4 3
5 4 4 4 5 5 4 4 4 4 4 3 3 3 3 3 3 2 2 2 2 2 4 4 4 2 2 2 2 3 3 3 4 3 3 4 5 5
7 5 4 4 4 4 4 3 3 4 3 3 3 3 2 2 2 2 2 2 2 2 2 3 3 4 5 4 3 2 3 3 4 4 2 3 5 5
6 4 4 4 4 3 3 3 2 2 2 3 3 2 2 2 2 2 2 2 2 2 2 2 2 2 3 4 6 3 2 3 3 3 3 3 4 6
4 4 4 3 3 3 3 2 2 2 2 2 2 2 2 2 2 2 2 1 1 2 3 3 2 1 2 3 4 5 6 3 2 3 4 3 4 7
3 3 3 3 3 3 3 3 3 2 2 2 2 2 2 2 2 2 2 3 2 2 2 3 5 6 2 1 3 5 5 7 5 4 3 3 4 4
3 3 3 3 3 3 3 3 2 2 2 2 2 2 2 1 1 2 2 2 2 2 3 4 5 4 2 2 4 5 5 6 7 9 7 5 3 3
3 3 3 3 3 3 3 3 3 2 1 1 1 1 1 1 2 2 2 2 2 3 3 4 4 3 2 2 3 4 6 6 4 5 6 10 11 11
Wind_Direction
181 176 172 180 158 158 157 160 155 166 259 303 327 331 334 121 188 171 162 185 199 204 204 208 215 218 213 205 201 211 280 337 339 336 332 328 324 318
177 170 169 168 128 110 124 126 143 154 179 250 293 338 19 60 68 86 94 101 153 175 185 200 204 197 182 173 171 137 82 39 14 360 353 347 340 330
183 170 181 161 137 119 100 105 119 132 150 233 1 17 39 48 46 49 61 63 67 88 112 118 120 124 121 115 111 102 84 61 38 24 17 11 1 352
174 159 167 143 119 106 98 99 117 133 142 144 36 23 35 45 57 59 56 63 65 68 83 89 95 98 101 98 97 94 81 66 50 41 36 27 18 9
145 141 143 125 114 94 93 86 82 87 101 116 92 36 33 38 48 46 46 36 58 64 69 74 80 91 99 101 100 94 85 75 65 55 46 37 24 12
86 92 99 114 122 113 93 87 93 88 90 98 87 49 31 16 47 44 37 27 31 32 37 54 57 74 82 93 100 100 94 84 72 56 37 21 10 359
88 81 83 89 87 90 97 98 102 102 98 94 85 66 40 31 22 5 42 31 30 24 26 31 32 35 33 47 64 71 74 54 35 23 4 354 349 346
105 93 85 79 82 79 79 79 86 105 112 104 93 91 72 46 26 38 46 47 19 354 37 24 28 24 11 20 18 18 350 341 346 342 338 335 335 335
106 104 94 85 83 83 75 70 66 69 85 109 103 100 96 61 68 53 52 66 35 323 41 31 10 9 2 25 20 8 350 338 337 332 325 327 329 326
89 98 101 92 89 95 89 76 66 56 66 82 102 99 98 93 87 100 103 78 31 359 32 56 350 344 347 350 2 8 358 348 339 330 327 330 332 328
77 80 94 94 93 99 96 90 76 59 63 75 83 82 75 69 72 71 59 69 39 346 360 62 339 333 334 332 345 353 346 345 344 340 337 334 333 329
80 73 76 87 88 93 97 98 90 73 74 71 60 52 49 44 48 72 100 97 92 344 330 40 349 6 349 321 323 334 339 336 342 344 344 340 338 335
96 82 73 80 83 84 87 90 100 103 90 84 71 51 40 35 30 37 61 108 110 239 288 75 22 8 360 312 316 315 325 324 332 333 334 333 331 332
102 95 88 84 80 79 80 82 85 86 80 73 64 47 38 24 14 22 33 48 109 184 264 113 122 208 328 321 307 314 321 322 325 318 315 322 321 321
101 105 95 86 76 70 71 74 75 77 79 76 68 42 7 4 19 20 17 26 24 14 20 55 113 191 157 229 281 298 312 314 321 318 311 308 299 307
88 86 79 73 69 66 62 56 56 69 85 84 70 31 22 30 30 29 32 25 30 355 348 2 20 74 341 276 256 287 288 291 303 310 307 300 297 293
100 78 68 65 63 60 56 53 51 52 57 55 59 50 36 32 19 18 41 46 43 356 335 333 337 333 258 236 290 295 297 296 289 300 314 309 294 292
92 86 82 82 84 84 80 64 54 53 54 62 59 54 45 38 23 15 32 42 21 342 325 319 341 356 354 325 249 261 291 284 293 303 303 301 295 296
87 90 93 98 99 97 93 87 68 53 64 66 59 44 39 37 35 21 16 17 359 337 319 321 351 27 2 325 305 286 263 287 304 308 299 281 277 287
90 104 109 108 104 100 100 99 85 63 57 55 48 36 33 37 28 10 4 2 340 331 330 326 321 299 243 257 275 295 303 287 289 294 292 293 284 290
98 106 113 113 109 106 106 102 95 86 72 60 43 30 24 34 20 357 350 353 358 338 326 304 287 299 273 322 319 305 299 301 290 276 277 295 306 311
123 123 121 119 119 115 111 107 94 84 69 58 33 13 9 25 12 350 345 340 323 305 294 292 309 332 357 335 303 295 297 305 314 317 297 262 254 275
141 133 128 128 126 121 120 119 115 106 92 71 32 3 1 357 339 332 326 325 319 317 317 316 323 330 315 296 293 293 299 302 305 316 307 303 302 292